GPS III SV07

operational
NORAD ID: 62339 Int'l Des: 2024-242 Owner: SFSSC Country: US Constellation: GPS
MEOCIRCULARGNSS

GPS III SV07について

説明を読み込み中...

リアルタイム位置

3D地球を読み込み中...

次回通過

高度履歴

Altitude vs Time

uPlot chart will show altitude changes over time

軌道要素

1 62339U 24242A 25296.52197701 -.00000088 00000-0 00000-0 0 9990
2 62339 54.9381 343.7761 0009556 342.0018 18.2470 2.00566957 6513
Epoch: Oct 23, 2025 • Age: 60 hours

現在のステータス

高度 20158.6 km
速度 3.88 km/s
衛星直下点 5.39°N, 55.67°W
打ち上げ日 Dec 17, 2024
運用期間 0.8 years
タイプ navigation

技術仕様

分類 Payload
質量 4352.00 kg
乾燥質量 2160.00 kg
総質量 4352.00 kg
長さ 3.40 m
直径 1.80 m
スパン 14.00 m
形状 Box + 2 pan
製造者 LMSSD
バスタイプ A2100
フェーズステータス In Orbit
所有者/国 SFSSC/US

大規模コンステレーション

Loading constellations...